Location: Klein M�hlingen
(51.9472°N, 11.7453°E)
Time: 03:09:11
(UTC+00:00)

Nauka - Pass Details

Date: 29 September 2021
Orbit: 417 x 423 km, 51.6° (Epoch: 23 October)

Event Time Altitude Azimuth Distance (km) Brightness Sun altitude
Rises 19:49:33 0° 282° (WNW) 2,367 ? -26.5°
Reaches altitude 10° 19:51:58 10° 265° (W) 1,501 ? -26.8°
Enters shadow 19:52:48 14° 255° (WSW) 1,259 ? -26.9°
